Weather Roundup
Issued by NWS

Home | Current Version | Previous Version | Graphics & Text | Print | Product List | Glossary Off
Versions: 1 2 3 4 5 6 7 8 9 10 11 12 13 14 15 16 17 18 19 20 21 22 23 24 25 26 27 28 29 30 31 32 33 34 35 36 37 38 39 40 41 42 43 44 45 46 47 48 49 50

000
NZUS93 KARX 270910
HRRWXR

CURRENT HOURLY OBSERVATIONS ACROSS
MUCH OF THE UPPER MISSISSIPPI VALLEY
NATIONAL WEATHER SERVICE LA CROSSE WI
400 AM CDT WED MAY 27 2015


...SOUTHEAST MINNESOTA...


CITY           SKY/WX    TMP DP  RH WIND       PRES   REMARKS
ROCHESTER      CLOUDY    56  55  97 W8        29.87R
ROCHESTER/MAYO PTSUNNY   56  56 100 W8        29.86R
WINONA         DRIZZLE   59  55  88 NW5       29.83
AUSTIN         CLOUDY    55  55 100 W6        29.87R FOG
ALBERT LEA     CLOUDY    57  57 100 W5        29.88R FOG
DODGE CENTER   CLOUDY    55  55 100 W7        29.87R FOG
PRESTON        CLOUDY    56  54  94 NW8       29.87R
OWATONNA       CLOUDY    57  55  94 SW6       29.87S FOG
FARIBAULT      CLOUDY    55  55 100 CALM      29.87R FOG
$$

...ELSEWHERE IN MINNESOTA...


CITY           SKY/WX    TMP DP  RH WIND       PRES   REMARKS
MINNEAPOLIS    CLOUDY    56  55  97 SW6       29.85R
INTNL FALLS    CLEAR     48  47  96 CALM      29.75R
DULUTH         MOCLDY    52  48  86 W8        29.79S
RED WING       CLOUDY    57  55  94 NW3       29.83S FOG
REDWOOD FALLS  MOCLDY    55  53  93 S6        29.86R
MANKATO        CLOUDY    55  54  94 SW5       29.87S
WORTHINGTON    PTCLDY    55  50  82 SW7       29.91S
FAIRMONT       CLOUDY    55  50  82 W7        29.88S
$$

...SOUTHWEST WISCONSIN...


CITY           SKY/WX    TMP DP  RH WIND       PRES   REMARKS
LA CROSSE      LGT RAIN  60  57  89 W5        29.82R
PRAIRIE DU CHI CLOUDY    60  57  89 NW7       29.84R
BOSCOBEL       LGT RAIN  61  58  90 SW5       29.83R
LONE ROCK      CLOUDY    60  58  92 W8        29.83R
PLATTEVILLE    CLOUDY    60  59  97 SW7       29.85R
FORT MC COY    CLOUDY    58  57  96 W3        29.82S
CAMP DOUGLAS   MOCLDY    59  59 100 MISG        N/A
VIROQUA        CLOUDY    58  58 100 W7        29.83S
WIS DELLS      CLOUDY    59  56  89 W6        29.80S
$$

...ELSEWHERE IN WISCONSIN...


CITY           SKY/WX    TMP DP  RH WIND       PRES   REMARKS
MILWAUKEE      PTCLDY    63  59  87 SW6       29.80S
MADISON        LGT RAIN  61  57  87 VRB3      29.81R
GREEN BAY      CLOUDY    63  59  87 SW14G23   29.71R
EAU CLAIRE     CLOUDY    56  54  93 W7        29.81R
BLACK RVR FLS  DRIZZLE   58  58 100 CALM      29.81R
MEDFORD        DRIZZLE   53  52  97 W8        29.78R
WAUSAU         LGT RAIN  56  54  93 W13       29.74R FOG
WIS RAPIDS     CLOUDY    58  55  90 W9        29.79R
MARSHFIELD     LGT RAIN  57  53  86 W12       29.78R
RICE LAKE      CLOUDY    54  52  94 W3        29.83R
$$

...NORTHEAST IOWA...


CITY           SKY/WX    TMP DP  RH WIND       PRES   REMARKS
DECORAH        CLOUDY    57  57 100 VRB5      29.85R
MASON CITY     CLOUDY    57  56  96 W8        29.90R
CHARLES CITY   CLOUDY    57  57 100 W6        29.88R
OELWEIN        CLOUDY    59  57  94 NW12      29.87S
$$

...ELSEWHERE IN IOWA...


CITY           SKY/WX    TMP DP  RH WIND       PRES   REMARKS
DES MOINES     CLOUDY    60  56  86 W7        29.92R
IOWA CITY      CLOUDY    62  60  93 W7        29.90R
FORT DODGE     CLOUDY    55  54  94 CALM      29.92R
$$

...NORTHERN ILLINOIS...


CITY           SKY/WX    TMP DP  RH WIND       PRES   REMARKS
CHICAGO-OHARE  PTCLDY    65  61  87 SW9       29.85R
CHICAGO-MIDWAY PTCLDY    68  62  81 SW15      29.86R
MOLINE         CLEAR     62  58  86 SW9       29.88R
ROCKFORD       MOCLDY    64  60  87 SW12      29.86R
PEORIA         MOCLDY    68  63  84 SW9       29.92R
$$

NOTE: "FAIR" INDICATES FEW OR NO CLOUDS BELOW 12,000 FEET WITH NO
SIGNIFICANT WEATHER AND/OR OBSTRUCTIONS TO VISIBILITY. WIND
SPEEDS ARE IN MILES-PER-HOUR.



USA.gov is the U.S. government's official web portal to all federal, state and local government web resources and services.